FW9262 Weather Reports


time (UTC)temp
F
wind
direction
speed
knots
gust
knots
rain 1hr
in
rain 24hr
in
rain mn
in
humidity
%
barometer
mb
20220629031525 66 343 0.0 0.0 0.00 0.00 0.00 84 1015.3
20220629031023 66 309 0.0 1.7 0.00 0.00 0.00 84 1015.3
20220629030522 66 309 0.9 2.6 0.00 0.00 0.00 83 1014.9
20220629030021 66 313 0.9 1.7 0.00 0.00 0.00 82 1014.9
20220629025519 66 318 0.9 1.7 0.00 0.00 0.00 82 1014.9
20220629025018 66 337 0.9 1.7 0.00 0.00 0.00 82 1014.9
20220629024517 67 315 0.0 2.6 0.00 0.00 0.00 82 1014.9
20220629024016 67 280 1.7 3.5 0.00 0.00 0.00 82 1014.9
20220629023515 67 211 1.7 2.6 0.00 0.00 0.00 81 1014.9
20220629023013 67 332 0.9 2.6 0.00 0.00 0.00 81 1014.9
20220629022513 67 259 2.6 3.5 0.00 0.00 0.00 80 1014.6
20220629022011 68 285 2.6 3.5 0.00 0.00 0.00 79 1014.6
20220629021510 68 357 1.7 3.5 0.00 0.00 0.00 78 1014.9
20220629021009 68 310 0.9 1.7 0.00 0.00 0.00 77 1014.6
20220629020509 69 290 1.7 2.6 0.00 0.00 0.00 76 1014.6
20220629020009 69 265 1.7 3.5 0.00 0.00 0.00 76 1014.6
20220629015508 69 283 0.9 5.2 0.00 0.00 0.00 75 1014.6
20220629015008 69 16 1.7 3.5 0.00 0.00 0.00 74 1014.3
20220629014508 70 331 2.6 3.5 0.00 0.00 0.00 73 1014.6
20220629014007 69 230 2.6 3.5 0.00 0.00 0.00 75 1014.6
20220629013506 69 323 0.9 2.6 0.00 0.00 0.00 75 1014.6
20220629013006 70 281 1.7 3.5 0.00 0.00 0.00 75 1014.6
20220629012505 69 278 0.9 2.6 0.00 0.00 0.00 77 1014.6
20220629012003 69 306 1.7 5.2 0.00 0.00 0.00 76 1014.6
20220629011502 70 228 3.5 3.5 0.00 0.00 0.00 75 1014.3
20220629011002 70 285 3.5 3.5 0.00 0.00 0.00 75 1014.6
20220629010501 70 307 1.7 3.5 0.00 0.00 0.00 76 1014.3
20220629010001 69 281 2.6 6.1 0.00 0.00 0.00 76 1014.6
20220629005500 70 235 1.7 3.5 0.00 0.00 0.00 75 1014.3
20220629004958 71 237 2.6 5.2 0.00 0.00 0.00 74 1014.6
20220629004456 70 218 1.7 5.2 0.00 0.00 0.00 75 1014.6
20220629003955 71 251 2.6 5.2 0.00 0.00 0.00 74 1014.9
20220629003453 71 224 1.7 3.5 0.00 0.00 0.00 75 1014.6
20220629002953 71 277 2.6 5.2 0.00 0.00 0.00 75 1014.6
20220629002452 71 287 3.5 3.5 0.00 0.00 0.00 73 1014.6
20220629001950 71 315 0.9 2.6 0.00 0.00 0.00 75 1014.9
20220629001449 70 315 3.5 5.2 0.00 0.00 0.00 75 1014.9
20220629000949 71 190 2.6 5.2 0.00 0.00 0.00 74 1014.9
20220629000445 72 261 2.6 6.1 0.00 0.00 0.00 73 1014.9
20220628235944 71 333 1.7 6.1 0.00 0.00 0.00 73 1015.3
20220628235443 71 320 1.7 3.5 0.00 0.00 0.00 74 1014.9
20220628234942 72 283 2.6 6.1 0.00 0.00 0.00 73 1014.9
20220628234441 72 297 1.7 5.2 0.00 0.00 0.00 73 1015.3
20220628233940 72 301 2.6 3.5 0.00 0.00 0.00 72 1014.9
20220628233439 72 119 2.6 5.2 0.00 0.00 0.00 72 1015.3
20220628232937 72 247 3.5 5.2 0.00 0.00 0.00 71 1015.3
20220628232438 72 250 1.7 5.2 0.00 0.00 0.00 72 1015.3
20220628231936 73 275 1.7 6.1 0.00 0.00 0.00 71 1014.9
20220628231436 73 307 1.7 2.6 0.00 0.00 0.00 70 1015.3
20220628230936 73 297 0.0 5.2 0.00 0.00 0.00 70 1015.3
20220628230435 73 219 1.7 5.2 0.00 0.00 0.00 70 1015.3
20220628225934 72 294 3.5 6.1 0.00 0.00 0.00 71 1015.6
20220628225435 73 286 1.7 3.5 0.00 0.00 0.00 71 1015.3
20220628224933 72 304 1.7 5.2 0.00 0.00 0.00 72 1015.3
20220628224432 72 277 1.7 7.0 0.00 0.00 0.00 72 1015.6
20220628223930 73 212 3.5 5.2 0.00 0.00 0.00 71 1015.6
20220628223429 72 298 2.6 6.1 0.00 0.00 0.00 72 1015.6
20220628222928 74 248 3.5 6.1 0.00 0.00 0.00 68 1015.6
20220628222428 73 295 2.6 6.1 0.00 0.00 0.00 70 1015.6
20220628221927 74 301 3.5 7.0 0.00 0.00 0.00 69 1015.6
20220628221425 73 302 0.9 3.5 0.00 0.00 0.00 70 1015.6
20220628220925 74 221 1.7 5.2 0.00 0.00 0.00 69 1016.0
20220628220425 74 302 2.6 5.2 0.00 0.00 0.00 69 1016.0
20220628215925 73 232 1.7 3.5 0.00 0.00 0.00 70 1016.0
20220628215424 73 267 2.6 6.1 0.00 0.00 0.00 70 1016.0
20220628214923 73 267 1.7 5.2 0.00 0.00 0.00 70 1015.6
20220628214422 73 241 5.2 6.1 0.00 0.00 0.00 70 1015.6
20220628213921 73 308 2.6 5.2 0.00 0.00 0.00 70 1016.0
20220628213419 73 284 2.6 3.5 0.00 0.00 0.00 70 1016.0
20220628212918 73 229 1.7 3.5 0.00 0.00 0.00 70 1016.0
20220628212417 73 229 1.7 3.5 0.00 0.00 0.00 69 1016.0
20220628211915 73 220 1.7 5.2 0.00 0.00 0.00 70 1016.0
20220628211414 73 271 4.3 5.2 0.00 0.00 0.00 70 1016.0
20220628210914 72 237 3.5 5.2 0.00 0.00 0.00 70 1016.0
20220628210412 73 279 2.6 6.1 0.00 0.00 0.00 69 1016.0
20220628205912 73 283 3.5 3.5 0.00 0.00 0.00 68 1016.0
20220628205412 74 322 2.6 3.5 0.00 0.00 0.00 69 1016.3
20220628204911 73 330 0.9 5.2 0.00 0.00 0.00 69 1016.3
20220628204410 73 239 3.5 6.1 0.00 0.00 0.00 69 1016.0
20220628203909 73 211 1.7 7.0 0.00 0.00 0.00 69 1016.3
20220628203409 73 209 1.7 5.2 0.00 0.00 0.00 69 1016.3
20220628202907 74 112 2.6 6.1 0.00 0.00 0.00 68 1016.0
20220628202406 73 190 2.6 6.1 0.00 0.00 0.00 69 1016.3
20220628201906 74 270 1.7 3.5 0.00 0.00 0.00 67 1016.3
20220628201405 74 244 1.7 5.2 0.00 0.00 0.00 68 1016.3
20220628200904 73 303 1.7 5.2 0.00 0.00 0.00 69 1016.3
20220628200403 73 204 1.7 5.2 0.00 0.00 0.00 68 1016.6
20220628195902 75 274 1.7 3.5 0.00 0.00 0.00 66 1016.6
20220628195402 74 56 2.6 6.1 0.00 0.00 0.00 69 1016.6
20220628194901 73 223 2.6 5.2 0.00 0.00 0.00 70 1016.6
20220628194400 73 259 2.6 5.2 0.00 0.00 0.00 69 1016.6
20220628193859 73 325 3.5 6.1 0.00 0.00 0.00 70 1016.6
20220628193358 74 288 2.6 6.1 0.00 0.00 0.00 69 1016.6
20220628192857 73 286 3.5 5.2 0.00 0.00 0.00 69 1017.0
20220628192357 73 217 1.7 5.2 0.00 0.00 0.00 71 1017.0
20220628191856 73 299 3.5 5.2 0.00 0.00 0.00 69 1016.6
20220628191355 74 263 2.6 5.2 0.00 0.00 0.00 68 1017.0
20220628190854 75 352 0.9 3.5 0.00 0.00 0.00 67 1017.0
20220628190353 74 221 1.7 3.5 0.00 0.00 0.00 68 1017.0
20220628185852 75 240 2.6 3.5 0.00 0.00 0.00 67 1016.6
20220628185351 73 257 3.5 5.2 0.00 0.00 0.00 71 1017.0
20220628184850 73 74 2.6 6.1 0.00 0.00 0.00 70 1017.0
20220628184349 74 281 2.6 3.5 0.00 0.00 0.00 69 1017.0
20220628183848 74 261 1.7 5.2 0.00 0.00 0.00 70 1017.0
20220628183347 74 248 3.5 3.5 0.00 0.00 0.00 69 1017.0
20220628182847 74 285 1.7 5.2 0.00 0.00 0.00 70 1017.0
20220628182345 74 233 3.5 3.5 0.00 0.00 0.00 68 1017.0
20220628181844 75 313 1.7 2.6 0.00 0.00 0.00 68 1017.0
20220628181341 75 246 1.7 3.5 0.00 0.00 0.00 69 1017.0
20220628180839 75 269 2.6 2.6 0.00 0.00 0.00 67 1017.0
20220628180338 74 227 1.7 3.5 0.00 0.00 0.00 70 1017.0
20220628175837 73 242 1.7 3.5 0.00 0.00 0.00 71 1016.6
20220628175337 74 321 0.9 2.6 0.00 0.00 0.00 71 1017.0
20220628174836 74 146 1.7 3.5 0.00 0.00 0.00 70 1017.0
20220628174337 74 286 2.6 3.5 0.00 0.00 0.00 70 1017.0
20220628173835 75 306 2.6 2.6 0.00 0.00 0.00 68 1017.0
20220628173336 74 296 3.5 3.5 0.00 0.00 0.00 69 1016.6
20220628172834 74 284 2.6 3.5 0.00 0.00 0.00 69 1016.6
20220628172334 74 300 1.7 2.6 0.00 0.00 0.00 70 1016.6
20220628171832 72 241 2.6 3.5 0.00 0.00 0.00 73 1017.0
20220628171332 72 307 0.9 3.5 0.00 0.00 0.00 73 1016.6
20220628170832 73 328 2.6 3.5 0.00 0.00 0.00 73 1016.6
20220628170331 73 219 1.7 2.6 0.00 0.00 0.00 71 1016.6
20220628165829 73 244 1.7 2.6 0.00 0.00 0.00 73 1016.6
20220628165328 73 203 2.6 3.5 0.00 0.00 0.00 73 1017.0
20220628164827 72 330 1.7 3.5 0.00 0.00 0.00 73 1016.6
20220628164327 72 283 2.6 2.6 0.00 0.00 0.00 74 1016.6
20220628163825 72 241 0.9 1.7 0.00 0.00 0.00 75 1017.0
20220628163325 72 261 0.0 2.6 0.00 0.00 0.00 76 1016.6
20220628162825 72 344 1.7 2.6 0.00 0.00 0.00 74 1017.0
20220628162323 72 99 1.7 2.6 0.00 0.00 0.00 76 1017.0
20220628161822 71 350 0.0 1.7 0.00 0.00 0.00 78 1017.0
20220628161321 70 107 2.6 2.6 0.00 0.00 0.00 78 1017.0
20220628160819 70 332 0.0 2.6 0.00 0.00 0.00 79 1016.6
20220628160319 69 176 1.7 1.7 0.00 0.00 0.00 80 1017.0
20220628155818 69 286 0.9 1.7 0.00 0.00 0.00 81 1017.0
20220628155316 69 273 0.0 2.6 0.00 0.00 0.00 81 1017.0
20220628154815 68 293 0.9 1.7 0.00 0.00 0.00 82 1016.6
20220628154314 68 295 1.7 2.6 0.00 0.00 0.00 82 1017.0
20220628153812 68 287 0.9 0.9 0.00 0.00 0.00 83 1017.0
20220628153312 68 295 2.6 3.5 0.00 0.00 0.00 83 1017.0
20220628152811 67 328 0.0 2.6 0.00 0.00 0.00 86 1016.6
20220628152310 67 269 1.7 3.5 0.00 0.00 0.00 87 1016.6
20220628151807 67 308 0.9 2.6 0.00 0.00 0.00 89 1017.0
20220628151306 66 327 0.9 1.7 0.00 0.00 0.00 91 1016.6
20220628150805 66 301 0.9 1.7 0.00 0.00 0.00 92 1016.6
20220628150305 65 346 0.0 1.7 0.00 0.00 0.00 93 1016.6
20220628145804 64 302 0.0 0.0 0.00 0.00 0.00 93 1016.6
20220628145304 64 338 0.0 0.9 0.00 0.00 0.00 94 1016.6
20220628144802 64 336 0.0 0.9 0.00 0.00 0.00 94 1016.6
20220628144302 64 295 0.0 1.7 0.00 0.00 0.00 94 1016.6
20220628143801 63 330 0.0 0.0 0.00 0.00 0.00 95 1016.3
20220628143301 64 209 0.0 1.7 0.00 0.00 0.00 95 1016.3
20220628142759 64 337 0.0 0.0 0.00 0.00 0.00 95 1016.3
20220628142259 64 337 0.0 0.0 0.00 0.00 0.00 95 1016.3
20220628141757 63 340 0.0 0.0 0.00 0.00 0.00 95 1016.3
20220628141256 63 26 0.0 0.9 0.00 0.00 0.00 95 1016.0
20220628140754 63 13 0.0 0.0 0.00 0.00 0.00 95 1016.3
20220628140252 62 320 0.0 0.0 0.00 0.00 0.00 95 1016.0
20220628135752 63 326 0.0 0.0 0.00 0.00 0.00 95 1016.0
20220628135251 63 344 0.0 0.0 0.00 0.00 0.00 95 1016.0
20220628134750 63 350 0.0 0.0 0.00 0.00 0.00 95 1016.0
20220628134249 62 337 0.0 0.0 0.00 0.00 0.00 95 1015.6
20220628133749 62 341 0.0 0.0 0.00 0.00 0.00 95 1015.6
20220628133249 62 339 0.0 0.0 0.00 0.00 0.00 95 1016.0
20220628132748 62 346 0.0 0.0 0.00 0.00 0.00 95 1015.6
20220628132247 62 347 0.0 0.0 0.00 0.00 0.00 95 1015.6
20220628131746 62 349 0.0 0.0 0.00 0.00 0.00 95 1016.0
20220628131245 62 330 0.0 0.0 0.00 0.00 0.00 95 1016.0
20220628130744 62 357 0.0 0.0 0.00 0.00 0.00 95 1016.0
20220628130243 62 334 0.0 0.0 0.00 0.00 0.00 95 1016.0
20220628125742 62 327 0.0 0.9 0.00 0.00 0.00 95 1015.6
20220628125241 62 243 0.9 1.7 0.00 0.00 0.00 95 1016.0
20220628124740 63 332 0.0 0.0 0.00 0.00 0.00 95 1015.6
20220628124240 62 316 0.9 0.9 0.00 0.00 0.00 95 1015.6
20220628123738 62 333 0.0 0.0 0.00 0.00 0.00 95 1016.0
20220628123238 62 317 0.9 1.7 0.00 0.00 0.00 95 1015.6
20220628122737 62 282 0.9 1.7 0.00 0.00 0.00 95 1016.0
20220628122236 62 331 0.0 1.7 0.00 0.00 0.00 95 1016.0
20220628121734 62 330 0.9 1.7 0.00 0.00 0.00 95 1015.6
20220628121233 62 326 0.0 0.0 0.00 0.00 0.00 95 1016.0
20220628120732 62 319 0.0 0.0 0.00 0.00 0.00 95 1015.6
20220628120232 62 339 0.0 0.0 0.00 0.00 0.00 95 1015.6
20220628115731 62 338 0.0 0.9 0.00 0.00 0.00 94 1016.0
20220628115231 62 340 0.0 0.0 0.00 0.00 0.00 94 1015.6
20220628114729 62 330 0.0 0.0 0.00 0.00 0.00 94 1015.6
20220628114229 62 341 0.0 0.0 0.00 0.00 0.00 94 1016.0
20220628113728 62 345 0.0 0.0 0.00 0.00 0.00 94 1016.0
20220628113227 62 341 0.0 0.0 0.00 0.00 0.00 94 1015.6
20220628112726 62 356 0.0 0.0 0.00 0.00 0.00 94 1015.6
20220628112226 63 342 0.0 0.0 0.00 0.00 0.00 94 1016.0
20220628111724 63 347 0.0 0.0 0.00 0.00 0.00 94 1015.6
20220628111223 63 342 0.0 0.0 0.00 0.00 0.00 94 1015.6
20220628110723 63 308 0.0 0.0 0.00 0.00 0.00 94 1015.6
20220628110222 63 341 0.0 0.0 0.00 0.00 0.00 94 1016.0
20220628105720 63 286 0.0 0.9 0.00 0.00 0.00 94 1016.0
20220628105219 63 342 0.0 0.9 0.00 0.00 0.00 94 1015.6
20220628104717 63 330 0.0 0.0 0.00 0.00 0.00 94 1016.0
20220628104216 63 287 0.0 0.0 0.00 0.00 0.00 94 1015.6
20220628103715 63 340 0.0 0.0 0.00 0.00 0.00 94 1015.6
20220628103213 63 343 0.0 0.0 0.00 0.00 0.00 94 1015.6
20220628102713 63 348 0.0 0.0 0.00 0.00 0.00 93 1016.0
20220628102212 63 340 0.0 0.0 0.00 0.00 0.00 93 1016.0
20220628101710 63 309 0.9 1.7 0.00 0.00 0.00 93 1015.6
20220628101209 63 324 0.0 0.9 0.00 0.00 0.00 93 1016.0
20220628100708 63 327 0.0 0.9 0.00 0.00 0.00 93 1015.6
20220628100207 63 320 0.0 1.7 0.00 0.00 0.00 93 1015.6
20220628095707 63 343 0.0 0.0 0.00 0.00 0.00 93 1015.6
20220628095206 63 342 0.0 0.0 0.00 0.00 0.00 93 1015.6
20220628094706 62 339 0.0 0.0 0.00 0.00 0.00 93 1016.0
20220628094206 62 331 0.0 0.0 0.00 0.00 0.00 93 1016.3
20220628093704 62 345 0.0 0.0 0.00 0.00 0.00 93 1016.0
20220628093203 63 326 0.0 0.0 0.00 0.00 0.00 93 1016.0
20220628092703 63 337 0.0 0.0 0.00 0.00 0.00 92 1016.3
20220628092202 63 326 0.0 0.0 0.00 0.00 0.00 92 1016.3
20220628091702 63 339 0.0 0.0 0.00 0.00 0.00 92 1016.3
20220628091202 63 338 0.0 0.0 0.00 0.00 0.00 92 1016.3
20220628090700 63 338 0.0 0.0 0.00 0.00 0.00 92 1016.6
20220628090159 63 330 0.0 0.0 0.00 0.00 0.00 92 1016.6
20220628085658 63 342 0.0 0.0 0.00 0.00 0.00 92 1016.6
20220628085157 63 334 0.0 0.0 0.00 0.00 0.00 92 1016.3
20220628084656 63 329 0.0 0.0 0.00 0.00 0.00 92 1016.3
20220628084155 63 328 0.0 0.0 0.00 0.00 0.00 92 1016.3
20220628083655 63 339 0.0 0.9 0.00 0.00 0.00 92 1016.0
20220628083154 63 337 0.0 0.0 0.00 0.00 0.00 92 1016.3
20220628082654 63 329 0.0 0.0 0.00 0.00 0.00 92 1016.0
20220628082153 63 342 0.0 0.0 0.00 0.00 0.00 92 1016.0
20220628081653 63 344 0.0 0.0 0.00 0.00 0.00 92 1016.0
20220628081153 63 335 0.0 0.0 0.00 0.00 0.00 91 1016.0
20220628080652 63 344 0.0 0.0 0.00 0.00 0.00 91 1016.3
20220628080151 64 349 0.0 0.0 0.00 0.00 0.00 91 1016.0
20220628075650 64 340 0.0 0.0 0.00 0.00 0.00 91 1016.3
20220628075149 64 344 0.0 0.0 0.00 0.00 0.00 91 1016.3
20220628074648 64 345 0.0 0.0 0.00 0.00 0.00 91 1016.3
20220628074148 64 350 0.0 0.0 0.00 0.00 0.00 91 1016.6
20220628073647 64 71 0.9 0.9 0.00 0.00 0.00 91 1016.6
20220628073146 64 342 0.0 0.0 0.00 0.00 0.00 91 1016.3
20220628072646 64 315 0.0 0.0 0.00 0.00 0.00 91 1016.0
20220628072145 64 319 0.0 1.7 0.00 0.00 0.00 91 1016.0
20220628071644 64 339 0.0 0.0 0.00 0.00 0.00 91 1016.3
20220628071144 64 339 0.0 0.0 0.00 0.00 0.00 91 1016.3
20220628070642 64 343 0.0 0.0 0.00 0.00 0.00 91 1016.0
20220628070141 64 341 0.0 0.0 0.00 0.00 0.00 91 1016.3
20220628065640 64 276 0.9 1.7 0.00 0.00 0.00 90 1016.3
20220628065140 64 308 1.7 1.7 0.00 0.00 0.00 90 1016.3
20220628064638 64 283 0.9 1.7 0.00 0.00 0.00 90 1016.3
20220628064136 64 339 0.0 0.9 0.00 0.00 0.00 90 1016.3
20220628063635 64 333 0.0 0.9 0.00 0.00 0.00 90 1016.3
20220628063134 64 314 0.0 1.7 0.00 0.00 0.00 90 1016.3
20220628062633 64 320 0.9 0.9 0.00 0.00 0.00 90 1016.6
20220628062132 64 335 0.0 0.0 0.00 0.00 0.00 90 1016.6
20220628061631 64 313 0.9 0.9 0.00 0.00 0.00 90 1016.3
20220628061130 64 339 0.0 0.9 0.00 0.00 0.00 90 1016.3
20220628060630 64 287 1.7 2.6 0.00 0.00 0.00 90 1016.3
20220628060129 64 311 0.9 0.9 0.00 0.00 0.00 89 1016.6
20220628055628 64 339 0.0 0.0 0.00 0.00 0.00 90 1016.3
20220628055128 64 331 0.0 0.0 0.00 0.00 0.00 90 1016.6
20220628054628 64 335 0.0 0.9 0.00 0.00 0.00 89 1016.6
20220628054126 64 328 0.0 0.0 0.00 0.00 0.00 89 1016.3
20220628053625 64 300 1.7 1.7 0.00 0.00 0.00 89 1016.6
20220628053124 64 246 1.7 1.7 0.00 0.00 0.00 89 1016.0
20220628052623 64 338 0.0 0.9 0.00 0.00 0.00 89 1016.3
20220628052121 64 323 0.9 1.7 0.00 0.00 0.00 89 1016.3
20220628051620 64 345 0.0 1.7 0.00 0.00 0.00 89 1016.3
20220628051119 65 333 0.0 0.9 0.00 0.00 0.00 89 1016.3
20220628050618 65 270 1.7 1.7 0.00 0.00 0.00 89 1016.0
20220628050117 65 318 0.0 0.9 0.00 0.00 0.00 88 1016.3
20220628045616 65 330 0.0 1.7 0.00 0.00 0.00 88 1016.0
20220628045116 65 326 0.9 1.7 0.00 0.00 0.00 88 1016.0
20220628044614 65 334 0.9 1.7 0.00 0.00 0.00 88 1016.0
20220628044112 65 327 1.7 1.7 0.00 0.00 0.00 87 1016.0
20220628043612 65 329 0.0 0.9 0.00 0.00 0.00 87 1016.3
20220628043111 65 330 0.0 0.0 0.00 0.00 0.00 87 1016.0
20220628042609 66 343 0.9 1.7 0.00 0.00 0.00 86 1016.0
20220628042108 66 301 0.9 1.7 0.00 0.00 0.00 86 1016.0
20220628041606 66 297 0.0 1.7 0.00 0.00 0.00 85 1016.0
20220628041105 66 326 0.9 1.7 0.00 0.00 0.00 84 1015.6
20220628040604 66 331 0.0 0.0 0.00 0.00 0.00 84 1015.6
20220628040103 66 319 0.0 0.0 0.00 0.00 0.00 83 1015.6
20220628035602 66 338 0.0 0.0 0.00 0.00 0.00 83 1015.6
20220628035102 66 328 0.0 1.7 0.00 0.00 0.00 83 1015.3
20220628034602 66 317 0.9 1.7 0.00 0.00 0.00 83 1015.6
20220628034101 66 209 1.7 2.6 0.00 0.00 0.00 83 1015.3
20220628033601 66 347 0.0 2.6 0.00 0.00 0.00 83 1015.3
20220628033100 66 291 0.9 1.7 0.00 0.00 0.00 84 1015.3
20220628032559 66 337 0.0 0.9 0.00 0.00 0.00 84 1015.3
20220628032057 66 339 0.9 1.7 0.00 0.00 0.00 84 1014.9